Hourly Data Report for August 24, 2006

TORONTO CITY
ONTARIO

43°40'00.000" N
79°24'00.000" W
112.50 m
6158355
71508
XTO

Download Data

Hourly Data (August 2006)
Hourly Data Report for August 24, 2006
TIME
LST
Temp Definition
°C
Dew Point Definition
°C
Rel Hum Definition
%
Precip. Amount Definition
mm

Wind Dir Definition
10's deg

Wind Spd Definition
km/h
Visibility Definition
km
Stn Press Definition
kPa
Hmdx Definition


Wind Chill Definition


Weather Definition


00:00 17.3 14.6 84   LegendMM LegendMM   100.15     LegendNANA
01:00 17.5 14.5 83   LegendMM LegendMM   100.17     LegendNANA
02:00 17.1 13.7 80   LegendMM LegendMM   100.15     LegendNANA
03:00 16.5 13.5 82   LegendMM LegendMM   100.11     LegendNANA
04:00 16.5 13.1 80   LegendMM LegendMM   100.13     LegendNANA
05:00 16.5 13.2 81   LegendMM LegendMM   100.17     LegendNANA
06:00 16.3 13.4 83   LegendMM LegendMM   100.14     LegendNANA
07:00 17.0 13.8 81   LegendMM LegendMM   100.19     LegendNANA
08:00 18.0 14.6 81   LegendMM LegendMM   100.17     LegendNANA
09:00 18.9 15.5 81   LegendMM LegendMM   100.19     LegendNANA
10:00 19.9 16.1 79   LegendMM LegendMM   100.19     LegendNANA
11:00 20.1 16.5 80   LegendMM LegendMM   100.18 25   LegendNANA
12:00 19.9 16.4 80   LegendMM LegendMM   100.18     LegendNANA
13:00 21.0 15.9 73   LegendMM LegendMM   100.17 26   LegendNANA
14:00 21.3 16.1 72   LegendMM LegendMM   100.12 26   LegendNANA
15:00 21.1 16.1 73   LegendMM LegendMM   100.11 26   LegendNANA
16:00 20.7 16.4 76   LegendMM LegendMM   100.03 26   LegendNANA
17:00 20.9 16.3 75   LegendMM LegendMM   100.07 26   LegendNANA
18:00 20.2 16.2 78   LegendMM LegendMM   100.09 25   LegendNANA
19:00 19.9 16.4 80   LegendMM LegendMM   100.09     LegendNANA
20:00 19.7 16.7 83   LegendMM LegendMM   100.06     LegendNANA
21:00 19.6 16.5 82   LegendMM LegendMM   100.12     LegendNANA
22:00 20.2 16.8 81   LegendMM LegendMM   100.11 25   LegendNANA
23:00 19.8 16.6 82   LegendMM LegendMM   100.05     LegendNANA

Notes on Data Quality.

Legend

  • E = Estimated
  • M = Missing
  • NA = Not Available*
  • [empty] = Indicates an unobserved value
Date modified: